Regional Weather Roundup
Issued by NWS San Diego, CA

Home | Current Version | Previous Version | Text Only | Print | Product List | Glossary On
Versions: 1 2 3 4 5 6 7 8 9 10 11 12 13 14 15 16 17 18 19 20 21 22 23 24 25 26 27 28 29 30 31 32 33 34 35 36 37 38 39 40 41 42 43 44 45 46 47 48 49 50
317
ASUS46 KSGX 230411
RWRSGX
SAN DIEGO HOURLY WEATHER ROUNDUP
NATIONAL WEATHER SERVICE SAN DIEGO CA
900 PM PDT MON MAY 22 2017

NOTE: "FAIR" INDICATES FEW OR NO CLOUDS BELOW 12,000 FEET WITH NO
SIGNIFICANT WEATHER AND/OR OBSTRUCTIONS TO VISIBILITY.

CAZ042-043-060-061-PZZ750-775-230500-

GREATER SAN DIEGO AREA

CITY           SKY/WX    TMP DP  RH WIND       PRES   REMARKS
SAN DIEGO AP   PTCLDY    63  58  83 W6        29.97R
NATIONAL CITY    N/A     63  59  86 W2        29.96R
CHULA VISTA      N/A     63  59  89 CALM      29.88R
IMPERIAL BEACH MOCLDY    61  57  87 W6        29.97R
BROWN FIELD    PTCLDY    60  58  92 W5        29.96R
MIRAMAR MCAS   PTCLDY    63  55  75 W3        29.96R
MONTGOMERY FLD CLEAR     62  56  80 W5        29.96R

$$

NORTH SAN DIEGO COUNTY

CITY           SKY/WX    TMP DP  RH WIND       PRES   REMARKS
CAMP PENDLETON CLEAR     62  60  93 SW3       29.95R FOG
OCEANSIDE AP   MOCLDY    62  59  90 S6        29.95R
OCEANSIDE HBR    N/A     62  59  91 CALM      29.98R
VISTA            N/A     63  57  82 CALM      29.93R
CARLSBAD       CLEAR     61  59  93 SW3       29.95R
DEL MAR          N/A     60  58  91 CALM      29.98R
LA JOLLA SCRIP   N/A     60  58  92 SW2       29.95S
FALLBROOK        N/A     63  61  93 CALM        N/A
ESCONDIDO        N/A     68  58  71 CALM      29.95R
SAN MARCOS       N/A     64  57  78 CALM      29.96R
POWAY            N/A     64  57  78 CALM      29.96R

$$

EAST SAN DIEGO COUNTY

CITY           SKY/WX    TMP DP  RH WIND       PRES   REMARKS
RAMONA         CLEAR     66  55  67 CALM      29.97R
SANTEE LAKES     N/A     67  58  73 CALM      29.93R
LA MESA          N/A     65  57  77 CALM      29.88R
JAMUL            N/A     65  58  76 CALM      29.94R
DESCANSO N       N/A     60  47  64 NE3       29.88R
MT. LAGUNA OBS   N/A     65  22  19 NW3       29.77R
CAMPO            N/A     63  50  62 NE3       29.99R

$$

ORANGE COUNTY AND THE LOS ANGELES BASIN

CITY           SKY/WX    TMP DP  RH WIND       PRES   REMARKS
JOHN WAYNE AP  PTCLDY    64  59  83 SW7       29.94R
LAKE FOREST FR   N/A     68  54  62 CALM      29.82R
HUNTINGTON BCH   N/A     60  58  91 W6        29.95R
FULLERTON      CLEAR     69  56  62 VRB3      29.92R
LONG BEACH     CLEAR     63  55  75 NW7       29.93R
L.A. AP        CLOUDY    60  57  89 W9        29.94R
L.A. DOWNTOWN  CLEAR     62  57  83 CALM      29.94R

$$

THE INLAND EMPIRE

CITY           SKY/WX    TMP DP  RH WIND       PRES   REMARKS
CORONA         PTCLDY    73  56  54 W5        29.93R
CHINO          PTCLDY    74  56  53 W12       29.93R
ONTARIO        PTCLDY    75  55  49 SW9       29.93R
SAN BERNARDINO PTCLDY    81  50  34 SW7       29.94R
RIVERSIDE AP   PTCLDY    76  53  44 VRB3      29.93R
MORENO VALLEY    N/A     77  56  48 CALM      28.06R
MARCH ARB      PTCLDY    75  48  38 NW6       29.96R
HORSETHIEF CYN   N/A     75  47  37 CALM      29.91R
PERRIS           N/A     78  52  39 SW3       29.95R
HEMET EAST       N/A     78  39  24 CALM      29.95S
FRENCH VALLEY  FAIR      72  54  53 CALM      29.96R
TEMECULA         N/A     73  56  54 CALM      29.98R

$$

SAN BERNARDINO AND RIVERSIDE COUNTY MOUNTAINS

CITY           SKY/WX    TMP DP  RH WIND       PRES   REMARKS
BIG BEAR AP    MOCLDY    61  34  36 CALM      30.28R
PINE COVE        N/A     62  46  55 NW2       29.90S

$$

SOUTHERN DESERT INCLUDING THE COACHELLA VALLEY

CITY           SKY/WX    TMP DP  RH WIND       PRES   REMARKS
PALM SPRINGS   MOCLDY    98  45  16 NW16G22   29.80R
PALM DESERT      N/A     96  49  19 CALM      29.55
THERMAL        MOCLDY    91  42  18 NW5       29.73R
BLYTHE         MOCLDY    95  31  10 CALM      29.78R
IMPERIAL AP    CLEAR     92  41  17 SW10      29.75R
EL CENTRO NAS  PTCLDY    91  38  15 SW10      29.78R
MEXICALI       CLEAR     90  32  12 SW6       29.77R

$$

UPPER DESERT

CITY           SKY/WX    TMP DP  RH WIND       PRES   REMARKS
VICTORVILLE AP CLOUDY    81  34  18 CALM      30.00R
HESPERIA         N/A     80  41  25 SW8       29.97R
PALMDALE       MOCLDY    83  37  19 SW13G23   29.98R
LANCASTER      MOCLDY    80  39  23 W13       29.99R
EDWARDS AFB    MOCLDY    83  37  19 SW16      29.94S
DAGGETT        MOCLDY    85  28  12 E3        29.91R
29 PALMS N     CLOUDY    86  26  11 S5        29.98R
NEEDLES        PTCLDY    92  27   9 NW9       29.83R

$$

REGIONAL REPORTS

CITY           SKY/WX    TMP DP  RH WIND       PRES   REMARKS
SANTA BARBARA  CLEAR     55  53  93 S3        29.92S
SANDBERG       MOCLDY    75  34  22 NW6       30.15R
LAS VEGAS NV   CLEAR     90  32  12 CALM      29.92R
PHOENIX AZ     MOCLDY    94  27   9 SW6       29.78R
TIJUANA        PTCLDY    59  54  82 NW6       29.99R
ENSENADA NW      N/A     63  32  31 CALM      29.93R

$$

OFFSHORE ISLANDS

CITY           SKY/WX    TMP DP  RH WIND       PRES   REMARKS
CATALINA ARPT  CLEAR     73  45  36 NW9       29.99R
SAN NICOLAS IS   N/A    N/A N/A N/A VRB3      29.95R

$$

MARINE AND OFFSHORE BUOY REPORTS

STATION/POSITION SKY/WX   TEMP    WIND        PRES    VSBY  SWELL
                          AIR SEA DIR/SP/G                  HT/PER/DIR
                          (F)     (DEG/KT/KT) (MB)    (MI)  (FT/S/D)
TANNER BANKS               56 60  310/ 14/ 17 1014.8R         3/210/15
S CLEMENTE BASIN           57 62  300/ 12/ 14 1014.5R         3/ 40/16
SAN NICOLAS IS.               59                N/A           3/170/15
SO. S. ROSA ISLA           53 55  300/ 17/ 21 1014.2R         3/190/16
W. S. BARBARA CH           53 55  310/ 21/ 25 1013.8R         3/260/15
M. S. BARBARA CH                  250/ 16/ 19 1013.9R
S. MONICA BASIN            59 63  340/  4/  6 1013.4R         3/200/16
S PEDRO CHANNEL               63                N/A           2/170/17
CMP PENDLETON NS              64                N/A           2/210/17
OCEANSIDE OFFSHR              65                N/A           2/200/15
TORREY PINES OTR              66                N/A           2/200/15
SAN DIEGO BAY                 69              1014.7R
POINT LOMA SOUTH              66                N/A           3/200/14

$$





USA.gov is the U.S. government's official web portal to all federal, state and local government web resources and services.